Вернуться в каталог

DELTA 1 R/B

АктивенHEO
NORAD 515·ROCKET BODY·🇺🇸 United States

Запущен Dec 13, 1962 с Cape Canaveral Space Force Station

Loading…

Ближайшие Пролёты (ближайшие 24 часа)

TLE

СвежийSource: Space-Track

Эпоха: Sep 11, 2026, 00:21 UTC

1 00515U 62068B   26254.01471663 -.00000028  00000-0  00000-0 0  9991
2 00515  47.4944 247.8743 2830347  23.2609 347.4180  7.79274459814542

Отслеживайте DELTA 1 R/B в реальном времени с AllMySat

Download on the App Store